This is the latest recevied weather packets stored in our database for station/object DH9SB-6. If no packets are shown the sender has not sent any weather packets the latest 10 day(s).
| Time | Temp. | Humidity | Pressure | Rain* | Wind** | Luminosity | Snow |
|---|---|---|---|---|---|---|---|
| 1787740380 | 23.89° C | 62% | - | 0 mm | - | - | - |
| 1787739757 | 23.89° C | 62% | - | 0 mm | - | - | - |
| 1787739181 | 23.89° C | 62% | - | 0 mm | - | - | - |
| 1787738556 | 23.33° C | 62% | - | 0 mm | - | - | - |
| 1787737981 | 23.33° C | 63% | - | 0 mm | - | - | - |
| 1787737357 | 23.33° C | 62% | - | 0 mm | - | - | - |
| 1787736780 | 22.78° C | 63% | - | 0 mm | - | - | - |
| 1787736157 | 22.78° C | 61% | - | 0 mm | - | - | - |
| 1787735581 | 23.33° C | 63% | - | 0 mm | - | - | - |
| 1787734956 | 22.78° C | 67% | - | 0 mm | - | - | - |
| 1787734382 | 20.56° C | 73% | - | 0 mm | - | - | - |
| 1787733756 | 20° C | 76% | - | 0 mm | - | - | - |
| 1787733180 | 18.89° C | 75% | - | 0 mm | - | - | - |
| 1787732558 | 18.89° C | 75% | - | 0 mm | - | - | - |
| 1787731981 | 18.89° C | 77% | - | 0 mm | - | - | - |
| 1787731357 | 18.89° C | 80% | - | 0 mm | - | - | - |
| 1787730786 | 18.33° C | 85% | - | 0 mm | - | - | - |
| 1787730156 | 17.78° C | 89% | - | 0 mm | - | - | - |
| 1787729583 | 17.22° C | 94% | - | 0 mm | - | - | - |
| 1787728957 | 17.22° C | 96% | - | 0 mm | - | - | - |
| 1787728382 | 16.67° C | 99% | - | 0 mm | - | - | - |
| 1787727757 | 16.11° C | 99% | - | 0 mm | - | - | - |
| 1787727181 | 15.56° C | 98% | - | 0 mm | - | - | - |
| 1787726560 | 15° C | 98% | - | 0 mm | - | - | - |
| 1787725981 | 15° C | 98% | - | 0 mm | - | - | - |
* Rain latest hour (hover to see other rain measurements)
** Current wind speed in m/s (hover to see current wind gust speed)